Lid_Strength_Index
2 2 1 1 1 0 0 -0 -0 -1 -0 0 0 0 1 -0 -0 -1 -1 -1 -2 -1 -2 -1 -1 -1 -1 -0 -0 0 0 1 -0 1 1 1 0 1 0 -1 -1 -1 -1
3 2 2 1 1 1 0 0 -0 -0 -0 -0 -0 -0 -0 -0 -1 -1 -2 -2 -1 -1 -1 -1 -1 -1 -0 -1 0 0 1 1 0 2 2 4 2 0 0 -0 0 0 -1
3 3 2 2 1 1 1 0 0 -0 -0 -1 -0 -0 -1 -0 0 -0 -0 -1 -2 -2 -1 -1 -1 -1 -1 0 -0 0 1 2 1 -0 2 5 5 3 1 1 0 0 -0
3 3 2 2 2 1 0 0 0 -0 -0 -1 -0 -0 1 1 0 -0 -1 -1 -2 -2 -2 -2 -1 -1 -1 -0 -0 -1 -1 -0 2 1 0 0 1 4 5 2 1 0 0
3 3 3 2 1 1 1 0 0 0 -0 -0 -0 0 1 0 0 -0 -2 -2 -1 -2 -1 -2 -2 -1 -1 -1 -1 -0 -0 0 1 1 2 1 1 1 3 5 3 1 0
3 2 2 2 1 1 1 1 1 1 -0 -0 0 0 0 0 1 0 0 0 -0 -0 -1 -1 -1 -1 -1 -1 -1 -1 -1 0 0 1 1 2 2 3 4 4 3 3 1
3 3 2 2 2 2 1 1 1 1 0 0 0 0 0 -0 0 0 0 0 0 0 -1 -2 -1 -1 -1 -1 -1 -1 -0 -0 0 0 1 0 1 1 2 3 3 3 1
3 3 2 2 2 2 1 1 1 1 1 1 0 0 -0 0 0 -0 0 0 0 -0 -2 -1 -1 -1 -1 -1 -1 -0 -0 -1 -0 0 1 1 0 1 1 2 3 4 3
3 3 2 2 2 2 1 1 1 1 1 1 0 0 0 0 0 -0 -1 0 -1 -0 -1 -1 -1 -1 -1 -1 -1 -0 -0 -0 -0 0 0 0 0 -0 0 0 1 2 4
3 3 2 2 2 1 1 1 1 1 1 1 0 0 0 -0 -0 -0 -0 -0 -1 -1 -1 -1 -1 -1 -1 -1 -1 -0 -1 -0 0 0 0 0 0 -0 -0 0 0 0 2
3 3 2 2 2 1 1 1 1 1 1 1 0 0 0 0 -0 0 -0 -0 -1 -1 -1 -1 -0 -0 -0 -1 -0 -0 -0 0 1 0 0 0 -0 0 0 -0 -0 0 1
2 2 2 2 2 2 1 1 1 1 1 1 0 1 0 0 0 0 -0 -0 -0 -1 -1 -1 -1 -0 -0 -1 -0 0 0 1 1 0 0 0 0 -1 -1 0 -1 0 -0
3 2 2 2 2 2 2 1 1 1 1 1 1 1 1 0 0 0 -0 -0 -0 -0 -0 -1 -0 -0 -0 -0 -1 -0 0 0 0 0 1 0 -0 0 0 0 0 0 0
3 2 2 2 2 2 2 1 1 1 1 1 1 1 1 1 0 0 -0 -0 -0 -0 -0 -1 -0 -0 -0 -1 -0 0 0 0 0 0 -0 -0 -0 -0 -1 -0 -1 -0 0
4 3 2 2 2 2 2 1 1 1 1 1 1 1 1 0 0 0 0 -0 -0 -0 -0 -0 -0 -0 -0 0 0 0 0 0 0 -0 -0 -1 -0 0 1 1 0 0 1
4 3 2 2 2 2 2 1 1 1 1 1 1 1 1 1 1 0 0 -0 -0 -0 -0 -0 -0 -0 0 6 5 2 0 0 2 2 1 1 1 2 1 1 1 0 0
4 3 3 2 2 2 1 2 1 1 1 1 1 1 1 1 1 0 0 0 0 0 0 -0 -0 0 0 7 6 4 0 1 1 1 -0 1 2 1 0 1 1 1 1
4 4 3 2 2 1 1 1 1 1 1 1 1 1 1 1 1 1 1 1 0 0 1 0 -0 0 2 8 7 4 -0 1 -0 -1 -1 -0 -1 -1 -0 0 1 2 2
3 3 2 2 1 1 1 1 1 1 1 2 1 1 1 1 1 1 1 1 1 1 1 0 0 1 3 10 8 3 1 1 -0 -1 -1 -1 -0 2 1 0 0 0 0
3 3 2 2 2 1 1 2 2 2 2 2 1 1 1 1 1 1 1 1 1 1 0 0 0 4 3 10 9 4 1 2 1 -1 -1 1 1 3 2 -0 0 1 1
3 2 2 2 1 1 1 2 2 2 1 1 1 1 1 1 1 1 1 1 1 1 0 1 1 1 3 4 11 9 0 1 1 2 1 2 4 5 4 3 0 1 0
3 3 3 2 2 1 1 2 2 1 1 1 1 1 1 1 1 1 1 1 1 1 1 1 2 1 2 7 11 10 6 2 0 1 2 2 6 7 6 4 5 4 3
4 3 3 3 2 1 1 2 1 1 1 1 1 1 1 1 1 1 1 2 1 1 2 2 2 2 3 4 11 11 8 5 0 1 4 7 8 7 6 5 5 6 2
6 5 4 4 5 3 2 1 1 1 1 1 1 1 1 1 1 1 1 1 1 2 2 2 2 2 3 3 5 5 5 6 4 6 6 5 5 4 4 4 3 2 3
7 7 6 6 5 5 4 3 1 1 2 2 2 1 1 1 1 1 1 1 0 2 2 2 2 2 2 3 6 6 3 2 4 4 4 5 4 3 3 2 3 3 3
7 8 7 6 6 7 8 5 3 1 1 2 2 2 1 1 1 1 2 12 13 13 12 9 3 1 7 12 13 12 12 12 9 4 5 5 4 4 3 2 2 3 3